Date,TemperatureHighF,TemperatureAvgF,TemperatureLowF,DewpointHighF,DewpointAvgF,DewpointLowF,HumidityHigh,HumidityAvg,HumidityLow,PressureMaxIn,PressureMinIn,WindSpeedMaxMPH,WindSpeedAvgMPH,GustSpeedMaxMPH,PrecipitationSumIn
2013-1-1,43,40,31,13,4,-16,35,23,11,29.87,29.69,17,6,17,0.00
2013-1-2,39,30,25,-4,-15,-22,25,14,10,30.05,29.84,13,4,13,0.00
2013-1-3,48,30,24,1,-8,-20,36,20,10,30.06,29.87,14,4,14,0.00
2013-1-4,42,34,28,3,-5,-14,33,19,10,29.99,29.84,22,8,22,0.00
2013-1-5,49,36,27,4,-4,-15,33,19,10,30.17,29.90,17,4,17,0.00
2013-1-6,53,40,33,34,14,-6,89,43,10,30.11,29.84,15,3,15,0.11
2013-1-7,54,39,28,16,7,-12,48,30,10,30.27,29.92,15,2,15,0.00
2013-1-8,54,36,26,24,13,-4,66,43,10,30.30,29.78,14,2,14,0.00
2013-1-9,54,44,32,34,22,6,77,44,20,30.26,30.01,15,3,15,0.00
2013-1-10,58,45,37,57,12,-11,99,35,10,30.40,29.11,18,4,18,0.00
2013-1-11,50,45,37,47,28,8,99,54,24,30.39,29.92,9,3,9,0.56
2013-1-12,50,47,45,50,46,18,99,97,88,30.03,29.85,8,2,8,0.00
2013-1-13,51,46,42,49,45,41,99,94,71,30.02,29.86,13,2,13,0.00
2013-1-14,61,51,30,58,41,4,99,73,14,30.14,29.81,9,2,9,0.24
2013-1-15,41,40,38,37,23,-1,87,54,31,30.19,29.84,9,4,9,0.32
2013-1-16,43,39,36,42,36,26,96,90,62,30.06,29.64,13,4,13,0.63
2013-1-17,48,40,37,36,22,6,90,53,19,29.95,29.79,11,3,11,0.01
2013-1-18,39,32,24,22,-5,-24,54,22,10,30.37,29.84,17,4,17,0.00
2013-1-19,59,42,28,23,-1,-20,47,18,10,30.30,29.81,22,8,22,0.00
2013-1-20,61,46,33,61,29,-8,100,65,10,29.90,29.57,30,9,30,0.00
2013-1-21,36,31,26,36,19,-18,100,73,10,29.97,29.68,10,2,10,0.00
2013-1-22,30,21,14,14,-24,-32,60,14,10,30.10,29.70,25,8,25,0.00
2013-1-23,26,16,10,-14,-29,-35,29,12,10,30.14,30.04,17,6,17,0.00
2013-1-24,31,19,10,-10,-21,-30,35,17,10,30.29,29.99,16,6,16,0.00
2013-1-25,38,19,13,6,-15,-33,53,25,10,30.37,29.93,10,4,10,0.00
2013-1-26,16,15,13,2,0,-2,56,52,51,29.98,29.92,6,3,6,0.00
2013-1-27,41,20,15,23,1,-23,51,45,10,30.38,29.98,8,3,8,0.00
2013-1-28,36,31,21,33,14,-9,88,53,25,30.37,29.88,12,2,12,0.08
2013-1-29,61,44,35,41,32,17,90,69,20,30.00,29.87,10,3,10,0.00
2013-1-30,59,49,43,55,47,40,99,92,62,29.92,29.26,23,6,23,0.02
2013-1-31,59,46,31,59,30,-18,100,70,10,29.82,28.97,31,13,31,0.56